GW2402 Weather Reports


time (UTC)temp
F
wind
direction
speed
knots
gust
knots
rain 1hr
in
rain 24hr
in
rain mn
in
humidity
%
barometer
mb
20260510154553 79 0 0.0 0.0 0.00 0.08 0.00 82 1014.2
20260510153044 78 0 0.0 0.0 0.00 0.08 0.00 84 1014.2
20260510151547 78 0 0.0 0.0 0.00 0.08 0.00 84 1014.3
20260510150052 77 0 0.0 0.0 0.00 0.08 0.00 85 1014.2
20260510144557 77 0 0.0 0.0 0.00 0.08 0.00 85 1014.0
20260510143047 76 0 0.0 0.9 0.00 0.08 0.00 85 1013.9
20260510141542 74 0 0.0 0.0 0.00 0.08 0.00 88 1013.6
20260510140041 73 0 0.0 0.0 0.00 0.08 0.00 88 1013.4
20260510134544 72 0 0.0 0.0 0.00 0.08 0.00 90 1013.2
20260510133046 71 0 0.0 0.0 0.00 0.08 0.00 91 1013.2
20260510131547 70 0 0.0 0.0 0.00 0.08 0.00 92 1012.9
20260510130045 70 0 0.0 0.0 0.00 0.08 0.00 92 1012.4
20260510124548 69 0 0.0 0.0 0.00 0.08 0.00 92 1012.1
20260510123038 69 0 0.0 0.0 0.00 0.08 0.00 92 1012.1
20260510121547 69 0 0.0 0.0 0.00 0.08 0.00 92 1011.8
20260510120046 69 0 0.0 0.0 0.00 0.08 0.00 91 1011.5
20260510114556 69 0 0.0 0.0 0.00 0.08 0.00 91 1011.4
20260510113044 69 0 0.0 0.0 0.00 0.08 0.00 90 1011.4
20260510111538 70 0 0.0 0.0 0.00 0.08 0.00 90 1011.1
20260510110053 70 0 0.0 0.0 0.00 0.08 0.00 89 1011.1
20260510104549 70 0 0.0 0.9 0.00 0.08 0.00 89 1010.7
20260510103050 70 0 0.0 0.9 0.00 0.08 0.00 89 1010.6
20260510101601 70 0 0.0 0.9 0.00 0.08 0.00 89 1010.6
20260510100054 70 0 0.0 0.9 0.00 0.08 0.00 89 1010.8
20260510094551 69 0 0.0 0.0 0.00 0.08 0.00 89 1010.5
20260510093047 69 0 0.0 0.0 0.00 0.08 0.00 89 1010.7
20260510091545 69 0 0.0 0.0 0.00 0.08 0.00 89 1010.7
20260510090049 69 0 0.0 0.0 0.00 0.08 0.00 90 1010.6
20260510084606 69 0 0.0 0.0 0.00 0.08 0.00 89 1010.7
20260510083050 69 0 0.0 0.0 0.00 0.08 0.00 88 1010.9
20260510081546 70 0 0.0 0.0 0.00 0.08 0.00 87 1010.9
20260510080058 70 0 0.0 0.0 0.00 0.08 0.00 87 1010.9
20260510074542 70 0 0.0 0.0 0.00 0.08 0.00 86 1011.1
20260510073048 70 0 0.0 0.0 0.00 0.08 0.00 86 1010.8
20260510071549 71 0 0.0 0.0 0.00 0.08 0.00 85 1011.0
20260510070056 71 0 0.0 0.0 0.00 0.08 0.00 84 1011.2
20260510064548 71 0 0.0 0.0 0.00 0.08 0.00 83 1010.9
20260510063046 71 0 0.0 0.0 0.00 0.08 0.00 82 1010.9
20260510061549 72 0 0.0 0.0 0.00 0.08 0.00 81 1010.9
20260510060050 72 0 0.0 0.0 0.00 0.08 0.00 81 1010.7
20260510054549 73 0 0.0 0.0 0.00 0.08 0.00 81 1010.6
20260510053052 73 0 0.0 0.0 0.00 0.08 0.00 81 1010.7
20260510051556 73 0 0.0 0.0 0.00 0.08 0.00 82 1010.8
20260510050058 74 0 0.0 0.0 0.00 0.08 0.00 83 1010.7
20260510044543 74 0 0.0 0.0 0.00 0.08 0.08 84 1010.6
20260510043050 75 0 0.0 0.0 0.00 0.08 0.08 84 1010.7
20260510041546 75 0 0.0 0.0 0.00 0.08 0.08 84 1010.6
20260510040053 75 0 0.0 0.0 0.00 0.08 0.08 84 1010.4
20260510034548 76 0 0.0 0.0 0.00 0.08 0.08 83 1010.4
20260510033055 76 0 0.0 0.0 0.00 0.08 0.08 82 1010.2
20260510031551 77 0 0.0 0.0 0.00 0.08 0.08 81 1009.9
20260510030046 78 0 0.0 0.0 0.00 0.08 0.08 80 1009.5
20260510024548 79 0 0.0 0.0 0.00 0.08 0.08 79 1009.3
20260510023046 79 0 0.0 0.0 0.00 0.08 0.08 78 1009.3
20260510021638 80 0 0.0 0.0 0.00 0.08 0.08 78 1009.3
20260510020050 80 0 0.0 0.0 0.00 0.08 0.08 78 1009.0
20260510014555 81 0 0.0 0.0 0.00 0.08 0.08 77 1008.8
20260510013057 81 0 0.0 0.0 0.00 0.08 0.08 77 1008.9
20260510011546 82 0 0.0 0.0 0.00 0.08 0.08 75 1008.5
20260510010053 82 0 0.0 0.0 0.00 0.08 0.08 74 1008.2
20260510004541 83 0 0.0 0.0 0.00 0.08 0.08 73 1008.2
20260510003048 83 0 0.0 0.0 0.00 0.08 0.08 72 1008.0
20260510001547 84 0 0.0 0.0 0.00 0.08 0.08 72 1007.9
20260510000048 84 0 0.0 0.0 0.00 0.08 0.08 71 1008.0
20260509234545 84 0 0.0 0.0 0.00 0.08 0.08 70 1008.0
20260509233045 84 0 0.0 0.0 0.00 0.08 0.08 69 1007.7
20260509231550 84 0 0.0 0.0 0.00 0.08 0.08 68 1007.7
20260509230050 84 0 0.0 0.0 0.00 0.08 0.08 67 1007.9
20260509224547 83 0 0.0 0.0 0.00 0.08 0.08 66 1008.0
20260509223048 83 0 0.0 0.0 0.00 0.08 0.08 63 1007.9
20260509221550 82 0 0.0 0.0 0.00 0.08 0.08 65 1008.0
20260509220041 81 0 0.0 0.0 0.00 0.08 0.08 65 1007.7
20260509214549 80 0 0.0 0.0 0.00 0.08 0.08 68 1008.1
20260509213104 79 0 0.0 0.9 0.00 0.08 0.08 68 1008.4
20260509211552 78 0 0.9 4.3 0.02 0.08 0.08 70 1008.7
20260509210050 76 339 0.0 2.6 0.08 0.08 0.08 80 1008.6
20260509204549 74 0 0.0 0.9 0.08 0.08 0.08 83 1008.5
20260509203049 73 352 0.9 4.3 0.08 0.08 0.08 88 1008.7
20260509201547 74 31 0.0 2.6 0.06 0.06 0.06 80 1009.2
20260509200053 80 120 0.0 1.7 0.00 0.00 0.00 75 1009.5
20260509194555 85 0 0.0 0.9 0.00 0.00 0.00 77 1008.9
20260509193045 87 0 0.0 1.7 0.00 0.00 0.00 69 1009.1
20260509191545 88 219 0.0 0.9 0.00 0.00 0.00 71 1009.2
20260509190048 87 0 0.0 1.7 0.00 0.00 0.00 73 1009.3
20260509184557 87 104 0.0 1.7 0.00 0.00 0.00 72 1009.6
20260509183054 87 0 0.0 1.7 0.00 0.00 0.00 73 1009.9
20260509181552 86 255 0.0 2.6 0.00 0.00 0.00 74 1010.1
20260509180055 85 0 0.0 3.5 0.00 0.00 0.00 74 1010.3
20260509174542 85 0 0.9 2.6 0.00 0.00 0.00 75 1010.6
20260509173102 85 0 0.0 2.6 0.00 0.00 0.00 75 1011.0
20260509171547 85 0 0.0 0.9 0.00 0.00 0.00 77 1010.8
20260509170047 83 0 0.0 3.5 0.00 0.00 0.00 79 1010.7
20260509164551 82 0 0.0 2.6 0.00 0.00 0.00 80 1011.0
20260509163052 81 0 0.0 2.6 0.00 0.00 0.00 81 1011.1
20260509161559 81 270 0.0 2.6 0.00 0.00 0.00 81 1011.0
20260509160047 80 285 0.0 1.7 0.00 0.00 0.00 84 1010.8